Regional Weather Roundup
Issued by NWS

Home | Current Version | Previous Version | Text Only | Print | Product List | Glossary Off
Versions: 1 2 3 4 5 6 7 8 9 10 11 12 13 14 15 16 17 18 19 20 21 22 23 24 25 26 27 28 29 30 31 32 33 34 35 36 37 38 39 40 41 42 43 44 45 46 47 48 49 50

000
ASUS43 KFSD 240802
RWRSD

WEATHER ROUNDUP FOR SOUTH DAKOTA
NATIONAL WEATHER SERVICE SIOUX FALLS SD
300 AM CDT TUE APR 24 2018

NOTE: "FAIR" INDICATES FEW OR NO CLOUDS BELOW 12,000 FEET WITH NO
SIGNIFICANT WEATHER AND/OR OBSTRUCTIONS TO VISIBILITY.


SDZ001>005-009-010-012>017-240900-
NORTHWEST AND NORTH CENTRAL SOUTH DAKOTA

CITY           SKY/WX    TMP DP  RH WIND       PRES   REMARKS
BUFFALO          N/A     36  33  89 N23       30.31R
FAITH            N/A     33  33 100 N28G37    30.24R WCI  20
MOBRIDGE       RAIN      45  40  82 N22G32    30.19R
$$

SDZ012>016-024>037-041>051-057-063-072>074-240900-
SOUTHWEST AND SOUTH CENTRAL SOUTH DAKOTA

CITY           SKY/WX    TMP DP  RH WIND       PRES   REMARKS
RAPID CTY ARPT LGT RAIN  36  33  89 NW35G41   30.30S
PIERRE         CLOUDY    49  46  90 S12       30.08S
CUSTER         CLOUDY    32  25  75 N10       30.26R WCI  24
ELLSWORTH AFB  LGT RAIN  35  35 100 NW29G38   30.29R WCI  22
PHILIP         CLOUDY    43  42  97 NW29G38   30.17R
PINE RIDGE     CLOUDY    39  36  89 NW15G28   30.28R
SPEARFISH      MIX PCPN  32  32 100 NW15G21   30.38R WCI  22
WINNER         LGT RAIN  49  43  80 W13G23    30.15R
$$

SDZ004>011-016>023-039-040-240900-
NORTHEAST SOUTH DAKOTA

CITY           SKY/WX    TMP DP  RH WIND       PRES   REMARKS
ABERDEEN       LGT RAIN  51  42  71 N8        30.20R
WATERTOWN      CLOUDY    49  41  74 S3        30.15R
BROOKINGS      CLOUDY    49  41  74 NE3       30.15S
SISSETON         N/A     50  42  74 N6        30.18R
$$

SDZ017-020-022-023-036>040-048>070-240900-
SOUTHEAST SOUTH DAKOTA

CITY           SKY/WX    TMP DP  RH WIND       PRES   REMARKS
SIOUX FALLS    CLOUDY    47  41  80 CALM      30.14S
HURON          LGT RAIN  54  43  66 SW7       30.14R
CHAMBERLAIN    CLOUDY    53  49  87 E6        30.12F
MITCHELL       CLOUDY    52  43  71 S6        30.13S
YANKTON        CLOUDY    49  41  74 E3        30.14F
$$

ABBREVIATIONS USED IN REMARKS
   TC - TEMPERATURE IN CELSIUS
  WCI - WIND CHILL INDEX
   HX - HEAT INDEX
  VSB - VISIBILITY





USA.gov is the U.S. government's official web portal to all federal, state and local government web resources and services.